Hourly Data Report for October 22, 2013

All times are specified in Local Standard Time (LST). Add 1 hour to adjust for Daylight Saving Time where and when it is observed.

RANKIN INLET A
NUNAVUT

62°48'38.000" N
92°06'53.000" W
32.30 m
2303405
71083
YRT

Download Data

Hourly Data (October 2013)
Hourly Data Report for October 22, 2013
Temp Definition
°C
Dew Point Temp Definition
°C
Rel Hum Definition
%
Wind Dir Definition
10's deg

Wind Spd Definition
km/h
Visibility Definition
km
Stn Press Definition
kPa
Hmdx Definition


Wind Chill Definition


Weather Definition


TIME
00:00 Legend Double Dagger -2.9 -3.9 93 36 26 24.1 101.15   -10 Snow,Blowing Snow
01:00 Legend Double Dagger -2.7 -3.7 93 1 33 24.1 101.13   -10 Snow,Blowing Snow
02:00 Legend Double Dagger -2.6 -3.4 94 36 28 24.1 101.14   -10 Snow,Blowing Snow
03:00 Legend Double Dagger -2.6 -3.3 95 34 23 24.1 101.11   -9 Snow,Blowing Snow
04:00 Legend Double Dagger -2.4 -3.0 96 36 29 24.1 101.10   -9 Snow,Blowing Snow
05:00 Legend Double Dagger -2.1 -2.7 96 36 25 24.1 101.08   -9 Snow,Blowing Snow
06:00 Legend Double Dagger -2.0 -2.6 96 1 23 24.1 101.06   -8 Snow,Blowing Snow
07:00 Legend Double Dagger -1.7 -2.3 96 1 20 24.1 101.06   -7 Snow,Blowing Snow
08:00 Legend Double Dagger -1.8 -2.2 97 2 28 16.1 101.04   -9 Snow
09:00 Legend Double Dagger -1.8 -2.9 92 2 23 24.1 101.05   -8 Snow
10:00 Legend Double Dagger -2.0 -3.3 91 2 24 24.1 101.03   -8 Snow
11:00 Legend Double Dagger -1.9 -3.0 92 1 23 24.1 101.00   -8 Snow
12:00 Legend Double Dagger -1.6 -2.3 95 36 21 24.1 100.99   -7 Snow
13:00 Legend Double Dagger -1.5 -2.9 90 2 23 24.1 100.96   -8 LegendNANA
14:00 Legend Double Dagger -1.6 -3.2 89 2 22 24.1 100.96   -8 LegendNANA
15:00 Legend Double Dagger -1.5 -3.1 89 1 22 24.1 100.98   -7 Cloudy
16:00 Legend Double Dagger -1.8 -3.1 91 1 22 24.1 100.97   -8 LegendNANA
17:00 Legend Double Dagger -2.1 -3.2 92 2 24 24.1 100.98   -8 LegendNANA
18:00 Legend Double Dagger -2.7 -3.7 93 36 19 19.3 100.99   -8 Snow
19:00 Legend Double Dagger -2.7 -3.5 94 1 21 19.3 100.96   -9 Snow
20:00 Legend Double Dagger -2.8 -3.8 93 36 18 16.1 100.94   -8 Snow
21:00 Legend Double Dagger -2.6 -3.6 93 36 19 19.3 100.93   -8 Snow
22:00 Legend Double Dagger -2.7 -3.4 95 36 18 16.1 100.92   -8 Snow
23:00 Legend Double Dagger -2.4 -3.2 94 1 19 12.9 100.91   -8 Snow

Notes on Data Quality.

Legend

  • E = Estimated
  • M = Missing
  • NA = Not Available
  • ‡ = Partner data that is not subject to review by the National Climate Archives
Date modified: